x

Smith Island, Wa (sisw1) Weather Station

2:00am - Thu 28th May 2015 All times are PDT. -7 hours from GMT.

  • Wind
    9mph, 13mph gusts
  • 空気 Temp 50°f
  • Sea Pressure 1017.9mb
  • Smith Island, Wa
  • Smith Island, Wa

More Historic Weather Station data

Upgrade to MSW Pro to gain access to the past 30 days of data for over 8000 Wavebouys and Weather Stations around the globe.

Join Pro

Comparision Forecast

View Surf forecast
   
Thu 05/28 2:00am 9 13 mph 1017.9mb 50f
1:00am 6 7 mph 1017.5mb 51f
12:00am 9 10 mph 1017.2mb 52f
Wed 05/27 11:00pm  -  1 mph 1017.4mb 52f
10:00pm 6 8 mph 1017.4mb 52f
9:00pm 11 13 mph 1016.9mb 52f
8:00pm 5 7 mph 1017mb 53f
7:00pm 6 9 mph 1016.7mb 55f
6:00pm 8 9 mph 1016.8mb 55f
5:00pm 7 9 mph 1017.1mb 55f
4:00pm 6
mph
1017.2mb 56f
3:00pm 7
mph
1017.6mb 56f
2:00pm 3
mph
1018.2mb 54f
1:00pm 3 5 mph 1018.6mb 51f
12:00pm 5 7 mph 1018.7mb 53f
11:00am 6 8 mph 1018.7mb 52f
10:00am 9 10 mph 1018.7mb 51f
9:00am 9 10 mph 1018.8mb 50f
8:00am 10 11 mph 1018.6mb 50f
7:00am 9 11 mph 1018.2mb 50f
6:00am 11 13 mph 1018mb 50f
5:00am 13 14 mph 1017.7mb 50f
4:00am 16 18 mph 1017.5mb 50f
3:00am 18 21 mph 1017.2mb 50f
2:00am 15 17 mph 1017.3mb 50f
1:00am 14 16 mph 1017.4mb 51f
12:00am 16 20 mph 1016.8mb 51f
Tue 05/26 11:00pm 14 18 mph 1016.7mb 52f
10:00pm 11 16 mph 1016.8mb 52f
9:00pm 10 14 mph 1016.6mb 52f
8:00pm 8 10 mph 1016.5mb 54f
7:00pm 8 10 mph 1016.5mb 55f
6:00pm 8 10 mph 1016.6mb 56f
5:00pm 6 7 mph 1016.9mb 57f
4:00pm 6 7 mph 1017.2mb 58f
3:00pm 5 6 mph 1017.6mb 56f
2:00pm 5
mph
1017.9mb 56f
1:00pm 5 6 mph 1018mb 56f
12:00pm 8 9 mph 1018mb 54f
11:00am 9 11 mph 1018.1mb 55f
10:00am 13 14 mph 1017.7mb 52f
9:00am 10 11 mph 1017.8mb 52f
8:00am 9 10 mph 1017.7mb 51f
7:00am 10 11 mph 1017.4mb 51f
6:00am 7 8 mph 1017.3mb 51f
5:00am 5 6 mph 1017mb 51f
4:00am 5 6 mph 1016.9mb 51f
3:00am 7
mph
1016.7mb 51f
2:00am 7 8 mph 1016.7mb 51f
1:00am 3 5 mph 1016.6mb 51f
12:00am 9 10 mph 1016.4mb 51f
Mon 05/25 11:00pm 10 11 mph 1016.4mb 51f
10:00pm 7 8 mph 1016.4mb 51f
9:00pm 3 5 mph 1016mb 53f
8:00pm  -  mph 1016mb 55f
7:00pm 2 3 mph 1015.8mb 56f
6:00pm  -  1 mph 1015.9mb 58f
5:00pm 3 5 mph 1016.2mb 55f
4:00pm 3 5 mph 1016.3mb 56f
3:00pm 5
mph
1016.5mb 54f
2:00pm 5 6 mph 1016.7mb 55f
1:00pm 2 3 mph 1016.7mb 52f
12:00pm 2
mph
1016.7mb 51f
11:00am 1 2 mph 1016.4mb 52f
10:00am 6
mph
1016.1mb 53f
9:00am 7 9 mph 1015.9mb 51f
8:00am 7 8 mph 1015.9mb 51f
7:00am 10 13 mph 1015.6mb 50f
6:00am 13 14 mph 1015.3mb 50f
5:00am 13 18 mph 1015.5mb 50f
4:00am 11 15 mph 1015.6mb 50f
3:00am 11 14 mph 1015.8mb 50f
2:00am 10 15 mph 1015.7mb 50f
1:00am 11 16 mph 1015.9mb 50f
12:00am 11 15 mph 1016.1mb 51f
Sun 05/24 11:00pm 11 13 mph 1016.2mb 51f
10:00pm 9 11 mph 1016.4mb 51f
9:00pm 9 13 mph 1016.2mb 51f
8:00pm 9 11 mph 1016.4mb 54f
7:00pm 11 13 mph 1016.5mb 53f
6:00pm 10 11 mph 1017mb 54f
5:00pm 9 10 mph 1017.7mb 55f
4:00pm 3 5 mph 1018.3mb 56f
3:00pm 6 7 mph 1018.9mb 55f
2:00pm 6 8 mph 1019.3mb 56f
1:00pm 8 9 mph 1019.7mb 56f
12:00pm 11 13 mph 1020.1mb 55f
11:00am 15 17 mph 1020.1mb 51f